SHT8Q EGLL-EGPH

Flight info

Callsign SHT8Q
Flight time 0h 53m
Altitude 32000
Route ULTIB1J ULTIB T420 TNT UN57 POL UN601 RIBEL DCT INPIP INPIP1E
Aircraft A320/M-SDE3FGIJ1KRWXY/SB1

Departure

Time 2026-04-26 13:56
Airport London Heathrow Airport (EGLL)

Arrival

Time 2026-04-26 14:49
Airport Edinburgh Airport (EGPH)
Time Latitude Longitude Altitude Speed Heading
2026-04-26 13:21 51.47410 -0.48893 87 ft 0 kts 180°
2026-04-26 13:42 51.47411 -0.48893 114 ft 2 kts 180°
2026-04-26 13:43 51.47429 -0.48892 91 ft 3 kts 198°
2026-04-26 13:43 51.47445 -0.48881 88 ft 2 kts 208°
2026-04-26 13:43 51.47461 -0.48870 89 ft 3 kts 180°
2026-04-26 13:43 51.47479 -0.48874 87 ft 3 kts 144°
2026-04-26 13:44 51.47491 -0.48895 91 ft 2 kts 110°
2026-04-26 13:44 51.47491 -0.48897 91 ft 0 kts 110°
2026-04-26 13:48 51.47488 -0.48882 87 ft 3 kts 105°
2026-04-26 13:49 51.47486 -0.48836 88 ft 5 kts 92°
2026-04-26 13:49 51.47486 -0.48761 88 ft 8 kts 89°
2026-04-26 13:49 51.47486 -0.48657 89 ft 11 kts 89°
2026-04-26 13:49 51.47477 -0.48527 89 ft 13 kts 117°
2026-04-26 13:50 51.47397 -0.48477 87 ft 13 kts 180°
2026-04-26 13:50 51.47297 -0.48475 87 ft 15 kts 179°
2026-04-26 13:50 51.47194 -0.48475 87 ft 15 kts 180°
2026-04-26 13:50 51.47094 -0.48474 87 ft 13 kts 180°
2026-04-26 13:51 51.47007 -0.48473 87 ft 12 kts 180°
2026-04-26 13:51 51.46915 -0.48473 87 ft 13 kts 179°
2026-04-26 13:51 51.46825 -0.48472 88 ft 13 kts 180°
2026-04-26 13:51 51.46725 -0.48471 87 ft 15 kts 180°
2026-04-26 13:52 51.46637 -0.48470 87 ft 11 kts 179°
2026-04-26 13:52 51.46596 -0.48469 88 ft 0 kts 179°
2026-04-26 13:53 51.46585 -0.48469 91 ft 5 kts 179°
2026-04-26 13:53 51.46556 -0.48469 88 ft 0 kts 180°
2026-04-26 13:54 51.46539 -0.48469 89 ft 6 kts 179°
2026-04-26 13:54 51.46497 -0.48451 90 ft 7 kts 149°
2026-04-26 13:55 51.46479 -0.48390 89 ft 0 kts 92°
2026-04-26 13:55 51.46479 -0.48382 89 ft 11 kts 92°
2026-04-26 13:55 51.46487 -0.45622 269 ft 168 kts 89°
2026-04-26 13:56 51.46501 -0.43718 1197 ft 171 kts 90°
2026-04-26 13:56 51.46554 -0.41796 1915 ft 179 kts 82°
2026-04-26 13:56 51.46908 -0.39751 2270 ft 204 kts 66°
2026-04-26 13:56 51.47663 -0.37721 2754 ft 217 kts 59°
2026-04-26 13:57 51.48461 -0.35658 3585 ft 219 kts 60°
2026-04-26 13:57 51.49275 -0.33575 4386 ft 222 kts 58°
2026-04-26 13:57 51.50111 -0.31469 5184 ft 226 kts 58°
2026-04-26 13:57 51.50966 -0.29317 5973 ft 230 kts 58°
2026-04-26 13:58 51.51857 -0.27079 6450 ft 250 kts 58°
2026-04-26 13:58 51.52905 -0.24685 6879 ft 271 kts 46°
2026-04-26 13:58 51.54465 -0.22904 7559 ft 280 kts 22°
2026-04-26 13:58 51.56372 -0.22250 8341 ft 284 kts 358°
2026-04-26 13:59 51.58310 -0.22872 9172 ft 286 kts 342°
2026-04-26 13:59 51.60255 -0.23666 10057 ft 291 kts 345°
2026-04-26 13:59 51.62216 -0.24575 10700 ft 301 kts 336°
2026-04-26 14:00 51.68208 -0.29899 11971 ft 345 kts 327°
2026-04-26 14:00 51.70271 -0.31911 12695 ft 348 kts 327°
2026-04-26 14:00 51.71673 -0.33286 13170 ft 351 kts 327°
2026-04-26 14:01 51.74458 -0.36014 14127 ft 355 kts 327°
2026-04-26 14:01 51.76583 -0.38089 14771 ft 359 kts 327°
2026-04-26 14:01 51.78731 -0.40181 15372 ft 363 kts 327°
2026-04-26 14:01 51.80907 -0.42294 15970 ft 366 kts 327°
2026-04-26 14:02 51.83108 -0.44420 16559 ft 370 kts 327°
2026-04-26 14:02 51.85333 -0.46569 17149 ft 374 kts 327°
2026-04-26 14:02 51.87573 -0.48738 17738 ft 378 kts 327°
2026-04-26 14:02 51.89843 -0.50946 18321 ft 382 kts 327°
2026-04-26 14:03 51.92125 -0.53176 18859 ft 385 kts 327°
2026-04-26 14:03 51.94434 -0.55433 19399 ft 388 kts 327°
2026-04-26 14:03 51.96753 -0.57697 19947 ft 391 kts 327°
2026-04-26 14:03 51.99090 -0.59976 20506 ft 394 kts 327°
2026-04-26 14:04 52.01451 -0.62282 21047 ft 396 kts 327°
2026-04-26 14:04 52.03818 -0.64600 21568 ft 399 kts 327°
2026-04-26 14:04 52.06204 -0.66938 22061 ft 402 kts 327°
2026-04-26 14:04 52.08602 -0.69290 22558 ft 404 kts 327°
2026-04-26 14:05 52.11020 -0.71672 23064 ft 407 kts 327°
2026-04-26 14:05 52.13447 -0.74071 23546 ft 409 kts 326°
2026-04-26 14:05 52.15888 -0.76485 24014 ft 412 kts 326°
2026-04-26 14:05 52.18346 -0.78918 24432 ft 414 kts 326°
2026-04-26 14:06 52.20823 -0.81371 24840 ft 416 kts 326°
2026-04-26 14:06 52.23309 -0.83834 25257 ft 418 kts 326°
2026-04-26 14:06 52.25800 -0.86299 25657 ft 420 kts 326°
2026-04-26 14:06 52.28278 -0.88753 26060 ft 422 kts 326°
2026-04-26 14:07 52.30823 -0.91276 26457 ft 424 kts 326°
2026-04-26 14:07 52.33317 -0.93748 26861 ft 425 kts 326°
2026-04-26 14:07 52.35884 -0.96303 27257 ft 427 kts 326°
2026-04-26 14:07 52.38396 -0.98814 27647 ft 429 kts 325°
2026-04-26 14:08 52.40983 -1.01403 28045 ft 431 kts 325°
2026-04-26 14:08 52.43546 -1.03973 28427 ft 433 kts 325°
2026-04-26 14:08 52.46088 -1.06524 28816 ft 435 kts 325°
2026-04-26 14:08 52.48677 -1.09124 29195 ft 437 kts 325°
2026-04-26 14:09 52.51277 -1.11739 29556 ft 439 kts 325°
2026-04-26 14:09 52.53882 -1.14361 30060 ft 438 kts 325°
2026-04-26 14:09 52.56472 -1.16970 30579 ft 436 kts 325°
2026-04-26 14:09 52.59057 -1.19579 31010 ft 435 kts 325°
2026-04-26 14:10 52.61628 -1.22177 31463 ft 434 kts 325°
2026-04-26 14:10 52.64199 -1.24777 31923 ft 432 kts 325°
2026-04-26 14:10 52.66759 -1.27372 32217 ft 432 kts 325°
2026-04-26 14:11 52.74404 -1.35133 32303 ft 429 kts 325°
2026-04-26 14:11 52.79481 -1.40308 32301 ft 428 kts 324°
2026-04-26 14:12 52.84544 -1.45481 32302 ft 428 kts 324°
2026-04-26 14:12 52.89609 -1.50677 32307 ft 428 kts 324°
2026-04-26 14:13 52.97187 -1.58511 32306 ft 428 kts 324°
2026-04-26 14:14 53.02242 -1.63734 32313 ft 428 kts 324°
2026-04-26 14:14 53.06582 -1.67708 32305 ft 432 kts 334°
2026-04-26 14:15 53.12237 -1.71196 32307 ft 433 kts 335°
2026-04-26 14:15 53.17887 -1.74706 32310 ft 433 kts 335°
2026-04-26 14:16 53.23538 -1.78229 32312 ft 433 kts 335°
2026-04-26 14:16 53.29177 -1.81751 32311 ft 433 kts 335°
2026-04-26 14:17 53.34821 -1.85280 32312 ft 432 kts 335°
2026-04-26 14:17 53.40462 -1.88818 32310 ft 432 kts 335°
2026-04-26 14:18 53.46090 -1.92357 32308 ft 432 kts 335°
2026-04-26 14:18 53.51721 -1.95915 32309 ft 432 kts 335°
2026-04-26 14:19 53.57341 -1.99475 32305 ft 431 kts 334°
2026-04-26 14:19 53.62924 -2.03022 32304 ft 431 kts 334°
2026-04-26 14:20 53.68540 -2.06594 32307 ft 431 kts 334°
2026-04-26 14:20 53.74158 -2.10177 32307 ft 431 kts 334°
2026-04-26 14:21 53.79742 -2.13868 32307 ft 431 kts 333°
2026-04-26 14:21 53.85285 -2.17711 32306 ft 430 kts 333°
2026-04-26 14:22 53.90831 -2.21558 32303 ft 430 kts 333°
2026-04-26 14:22 53.96385 -2.25370 32299 ft 431 kts 333°
2026-04-26 14:23 54.01939 -2.29187 32296 ft 431 kts 333°
2026-04-26 14:23 54.07509 -2.33031 32300 ft 431 kts 332°
2026-04-26 14:24 54.13066 -2.36876 32304 ft 431 kts 332°
2026-04-26 14:24 54.18623 -2.40724 32305 ft 431 kts 332°
2026-04-26 14:25 54.24163 -2.44581 31949 ft 428 kts 332°
2026-04-26 14:25 54.26933 -2.46515 31164 ft 430 kts 332°
2026-04-26 14:25 54.29697 -2.48451 30615 ft 428 kts 333°
2026-04-26 14:25 54.32443 -2.50375 30031 ft 425 kts 333°
2026-04-26 14:26 54.35172 -2.52288 29399 ft 422 kts 333°
2026-04-26 14:26 54.37877 -2.54183 28813 ft 419 kts 333°
2026-04-26 14:26 54.40570 -2.56074 28228 ft 416 kts 333°
2026-04-26 14:26 54.43241 -2.57952 27671 ft 413 kts 333°
2026-04-26 14:27 54.45892 -2.59817 27126 ft 410 kts 333°
2026-04-26 14:27 54.48491 -2.61649 26591 ft 407 kts 334°
2026-04-26 14:27 54.51103 -2.63494 26308 ft 406 kts 334°
2026-04-26 14:27 54.53725 -2.65350 26268 ft 407 kts 334°
2026-04-26 14:28 54.56343 -2.67211 26282 ft 408 kts 334°
2026-04-26 14:28 54.58963 -2.69077 26282 ft 408 kts 334°
2026-04-26 14:28 54.61590 -2.70947 26281 ft 408 kts 334°
2026-04-26 14:28 54.64211 -2.72814 26284 ft 408 kts 333°
2026-04-26 14:29 54.66835 -2.74684 26280 ft 408 kts 333°
2026-04-26 14:29 54.69457 -2.76553 26281 ft 408 kts 334°
2026-04-26 14:29 54.72083 -2.78427 26280 ft 408 kts 333°
2026-04-26 14:29 54.74707 -2.80303 26281 ft 408 kts 333°
2026-04-26 14:30 54.77335 -2.82186 26278 ft 408 kts 333°
2026-04-26 14:30 54.79955 -2.84065 26278 ft 408 kts 333°
2026-04-26 14:30 54.82580 -2.85957 26279 ft 408 kts 333°
2026-04-26 14:30 54.85201 -2.87849 26280 ft 408 kts 333°
2026-04-26 14:31 54.87822 -2.89742 26275 ft 408 kts 333°
2026-04-26 14:31 54.90441 -2.91631 26277 ft 408 kts 333°
2026-04-26 14:31 54.93064 -2.93522 26275 ft 407 kts 333°
2026-04-26 14:31 54.95682 -2.95407 26277 ft 407 kts 333°
2026-04-26 14:32 54.98302 -2.97298 26218 ft 408 kts 333°
2026-04-26 14:32 55.00927 -2.99201 25574 ft 409 kts 333°
2026-04-26 14:32 55.03566 -3.01123 24831 ft 412 kts 334°
2026-04-26 14:32 55.06213 -3.03059 24091 ft 414 kts 334°
2026-04-26 14:33 55.08873 -3.05004 23264 ft 415 kts 334°
2026-04-26 14:33 55.11549 -3.06960 22269 ft 419 kts 334°
2026-04-26 14:33 55.14255 -3.08936 21303 ft 422 kts 335°
2026-04-26 14:33 55.16934 -3.10891 20372 ft 424 kts 334°
2026-04-26 14:34 55.19661 -3.12885 19465 ft 425 kts 334°
2026-04-26 14:34 55.22387 -3.14886 18583 ft 425 kts 334°
2026-04-26 14:34 55.25111 -3.16891 17587 ft 425 kts 334°
2026-04-26 14:34 55.27832 -3.18897 16629 ft 424 kts 334°
2026-04-26 14:35 55.30505 -3.21040 15677 ft 419 kts 328°
2026-04-26 14:35 55.32993 -3.23519 14748 ft 403 kts 327°
2026-04-26 14:35 55.35378 -3.25949 13855 ft 389 kts 327°
2026-04-26 14:35 55.37675 -3.28319 12868 ft 376 kts 326°
2026-04-26 14:36 55.39893 -3.30622 11911 ft 366 kts 326°
2026-04-26 14:36 55.42056 -3.32875 10992 ft 356 kts 326°
2026-04-26 14:36 55.44169 -3.35071 10079 ft 348 kts 326°
2026-04-26 14:36 55.46244 -3.37219 9107 ft 344 kts 326°
2026-04-26 14:37 55.48294 -3.39335 8145 ft 339 kts 327°
2026-04-26 14:37 55.50300 -3.41407 7516 ft 326 kts 327°
2026-04-26 14:37 55.52191 -3.43358 7332 ft 302 kts 327°
2026-04-26 14:37 55.53935 -3.45158 7252 ft 278 kts 327°
2026-04-26 14:38 55.55535 -3.46813 7255 ft 254 kts 326°
2026-04-26 14:38 55.57000 -3.48330 7256 ft 233 kts 327°
2026-04-26 14:38 55.58352 -3.49735 7255 ft 222 kts 326°
2026-04-26 14:38 55.59230 -3.50656 7258 ft 221 kts 326°
2026-04-26 14:39 55.60997 -3.52512 7282 ft 220 kts 326°
2026-04-26 14:39 55.62312 -3.53891 7266 ft 218 kts 326°
2026-04-26 14:39 55.63603 -3.55241 6974 ft 215 kts 326°
2026-04-26 14:39 55.64794 -3.56791 6568 ft 210 kts 310°
2026-04-26 14:40 55.65806 -3.58657 6156 ft 210 kts 313°
2026-04-26 14:40 55.66878 -3.60413 5734 ft 210 kts 315°
2026-04-26 14:40 55.67965 -3.62133 5324 ft 209 kts 315°
2026-04-26 14:40 55.69047 -3.63837 5004 ft 206 kts 316°
2026-04-26 14:41 55.70156 -3.65481 4997 ft 209 kts 318°
2026-04-26 14:41 55.71291 -3.67105 4998 ft 210 kts 319°
2026-04-26 14:41 55.72419 -3.68707 4744 ft 206 kts 319°
2026-04-26 14:41 55.73529 -3.70290 4447 ft 200 kts 319°
2026-04-26 14:42 55.74585 -3.71801 4266 ft 191 kts 318°
2026-04-26 14:42 55.75601 -3.73285 4053 ft 187 kts 315°
2026-04-26 14:42 55.76535 -3.74867 3986 ft 185 kts 312°
2026-04-26 14:42 55.77527 -3.76325 3991 ft 187 kts 327°
2026-04-26 14:43 55.78756 -3.77112 4000 ft 190 kts 348°
2026-04-26 14:43 55.80039 -3.77070 3995 ft 182 kts 10°
2026-04-26 14:43 55.81196 -3.76263 4015 ft 178 kts 31°
2026-04-26 14:43 55.82127 -3.74804 3997 ft 179 kts 52°
2026-04-26 14:44 55.82795 -3.72945 4004 ft 178 kts 59°
2026-04-26 14:44 55.83442 -3.71068 4002 ft 178 kts 59°
2026-04-26 14:44 55.84081 -3.69213 3983 ft 178 kts 59°
2026-04-26 14:44 55.84727 -3.67334 3823 ft 178 kts 59°
2026-04-26 14:45 55.85379 -3.65434 3609 ft 177 kts 59°
2026-04-26 14:45 55.85804 -3.64197 3470 ft 176 kts 59°
2026-04-26 14:45 55.86650 -3.61730 3149 ft 174 kts 59°
2026-04-26 14:45 55.87250 -3.59979 2917 ft 159 kts 59°
2026-04-26 14:46 55.87817 -3.58324 2723 ft 154 kts 59°
2026-04-26 14:46 55.88366 -3.56720 2507 ft 151 kts 58°
2026-04-26 14:46 55.88908 -3.55135 2307 ft 149 kts 59°
2026-04-26 14:46 55.89447 -3.53557 2100 ft 149 kts 59°
2026-04-26 14:47 55.89981 -3.51992 1896 ft 147 kts 58°
2026-04-26 14:47 55.90512 -3.50436 1690 ft 147 kts 58°
2026-04-26 14:47 55.91042 -3.48884 1501 ft 146 kts 59°
2026-04-26 14:47 55.91568 -3.47339 1304 ft 145 kts 58°
2026-04-26 14:48 55.92090 -3.45806 1096 ft 144 kts 58°
2026-04-26 14:48 55.92601 -3.44305 897 ft 140 kts 58°
2026-04-26 14:48 55.93100 -3.42838 702 ft 137 kts 58°
2026-04-26 14:48 55.93591 -3.41395 513 ft 135 kts 58°
2026-04-26 14:49 55.94078 -3.39961 328 ft 135 kts 59°
2026-04-26 14:49 55.94562 -3.38538 151 ft 134 kts 59°
2026-04-26 14:49 55.94989 -3.37270 112 ft 99 kts 59°
2026-04-26 14:49 55.95236 -3.36551 111 ft 32 kts 63°
2026-04-26 14:50 55.95214 -3.36378 114 ft 6 kts 139°
2026-04-26 14:50 55.95210 -3.36373 115 ft 0 kts 143°
2026-04-26 14:50 55.95207 -3.36369 115 ft 1 kts 144°
2026-04-26 14:51 55.95200 -3.36360 115 ft 2 kts 145°
2026-04-26 14:51 55.95182 -3.36340 113 ft 3 kts 148°
2026-04-26 14:51 55.95150 -3.36320 114 ft 6 kts 176°
2026-04-26 14:51 55.95114 -3.36353 113 ft 6 kts 225°
2026-04-26 14:52 55.95072 -3.36389 115 ft 7 kts 182°
2026-04-26 14:52 55.95032 -3.36392 114 ft 5 kts 195°
2026-04-26 14:52 55.95013 -3.36414 114 ft 4 kts 212°
2026-04-26 14:52 55.94988 -3.36409 115 ft 4 kts 157°
2026-04-26 14:53 55.94966 -3.36386 112 ft 4 kts 149°
2026-04-26 14:53 55.94950 -3.36368 113 ft 1 kts 148°
2026-04-26 14:53 55.94944 -3.36361 112 ft 0 kts 148°